Weather History for FBSK - December, 2012

Change the Weather History Date:

Monday, December 10, 2012

  Actual Average Record
Temperature  
Mean Temperature 72 °F -  
Max Temperature 82 °F 86 °F 100 °F (2003)
Min Temperature 60 °F 65 °F 60 °F (1998)
Cooling Degree Days 7    
Growing Degree Days 22 (Base 50)    
Moisture  
Dew Point 60 °F    
Average Humidity 70    
Maximum Humidity 94    
Minimum Humidity 39    
Precipitation  
Precipitation 0.00 in - - ()
Sea Level Pressure  
Sea Level Pressure 29.93 in    
Wind  
Wind Speed 9 mph ()    
Max Wind Speed 30 mph    
Max Gust Speed 45 mph    
Visibility 6.0 miles    
Events Rain , Thunderstorm    
Averages and records for this station are not official NWS values.
T = Trace of Precipitation, MM = Missing Value Source: Averaged Metar Reports

Daily Weather History Graph

Daily Weather History Graph

Search for Another Location

Airport or City:

Trip Planner

Search our weather history database for the weather conditions in past years. The results will help you decide how hot, cold, wet, or windy it might be!

Date:

Astronomy

Dec. 10, 2012 Rise Set
Actual Time 5:20 AM CAT 6:58 PM CAT
Civil Twilight 4:54 AM CAT 7:23 PM CAT
Nautical Twilight 4:24 AM CAT 7:54 PM CAT
Astronomical Twilight 3:52 AM CAT 8:26 PM CAT
Moon 2:29 AM CAT (12/10) 3:55 PM CAT (12/10)
Length of Visible Light 14h 28m
Length of Day
13h 37m
Waning Crescent, 12% of the Moon is Illuminated
Dec 10
Waning Crescent
Dec 13
New
Dec 20
First Quarter
Dec 28
Full
Jan 5
Last Quarter

Hourly Weather History & Observations

Time (CAT) Temp. Heat Index Dew Point Humidity Pressure Visibility Wind Dir Wind Speed Gust Speed Precip Events Conditions
12:00 AM 64.4 °F - 60.8 °F 88% 30.04 in 6.2 mi East 15.0 mph - N/A   Mostly Cloudy
1:00 AM 66.2 °F - 60.8 °F 83% 29.98 in 6.2 mi ENE 13.8 mph - N/A Thunderstorm Thunderstorm
2:00 AM 66.2 °F - 60.8 °F 83% 30.01 in 6.2 mi Variable 2.3 mph - N/A Thunderstorm Thunderstorm
4:00 AM 64.4 °F - 60.8 °F 88% 30.01 in 6.2 mi North 6.9 mph - N/A   Scattered Clouds
5:00 AM 64.4 °F - 60.8 °F 88% 29.98 in 6.2 mi NNE 5.8 mph - N/A   Scattered Clouds
6:00 AM 64.4 °F - 60.8 °F 88% 29.95 in 6.2 mi NNE 6.9 mph - N/A   Mostly Cloudy
7:00 AM 66.2 °F - 60.8 °F 83% 29.98 in 6.2 mi Variable 2.3 mph - N/A   Mostly Cloudy
8:00 AM 68 °F - 61 °F 73%  in 6 mi East 4.6 mph - -   Partly Cloudy
8:00 AM 68.0 °F - 60.8 °F 78% 29.98 in 6.2 mi East 4.6 mph - N/A   Mostly Cloudy
9:00 AM 69.8 °F - 60.8 °F 73% 29.98 in 6.2 mi NE 8.1 mph - N/A   Scattered Clouds
10:00 AM 71.6 °F - 62.6 °F 73% 29.98 in 6.2 mi ENE 11.5 mph - N/A   Scattered Clouds
11:00 AM 73.4 °F - 62.6 °F 69% 29.98 in 6.2 mi NE 10.4 mph - N/A   Scattered Clouds
12:00 PM 75.2 °F - 64.4 °F 69% 29.95 in 6.2 mi NE 11.5 mph - N/A   Scattered Clouds
1:00 PM 78.8 °F - 57.2 °F 47% 29.92 in 6.2 mi NE 13.8 mph - N/A   Scattered Clouds
2:00 PM 80.6 °F 81.5 °F 60.8 °F 51% 29.92 in 6.2 mi NE 12.7 mph - N/A   Partly Cloudy
3:00 PM 80.6 °F 80.8 °F 57.2 °F 45% 29.89 in 6.2 mi NE 11.5 mph - N/A   Partly Cloudy
4:00 PM 82.4 °F 81.7 °F 55.4 °F 39% 29.83 in 6.2 mi NE 11.5 mph - N/A   Partly Cloudy
5:00 PM 80.6 °F 80.5 °F 55.4 °F 42% 29.83 in 6.2 mi NNE 9.2 mph - N/A   Partly Cloudy
6:00 PM 80.6 °F 80.8 °F 57.2 °F 45% 29.80 in 6.2 mi NE 9.2 mph - N/A   Partly Cloudy
7:00 PM 77.0 °F - 59.0 °F 54% 29.80 in 6.2 mi NE 6.9 mph - N/A   Partly Cloudy
8:00 PM 77.0 °F - 60.8 °F 57% 29.83 in 6.2 mi East 11.5 mph - N/A   Partly Cloudy
9:00 PM 75.2 °F - 60.8 °F 61% 29.86 in 6.2 mi ESE 10.4 mph - N/A   Partly Cloudy
9:33 PM 64.4 °F - 59.0 °F 83% 29.95 in 3.7 mi Variable 9.2 mph - N/A Rain , Thunderstorm Thunderstorms and Rain
10:00 PM 62.6 °F - 60.8 °F 94% 29.89 in 5.0 mi SE 29.9 mph 44.9 mph N/A Rain , Thunderstorm Thunderstorms and Rain
11:00 PM 60.8 °F - 59.0 °F 94% 30.01 in - WSW 20.7 mph - N/A Rain , Thunderstorm Heavy Thunderstorms and Rain